Weather History for KSTC - December, 2013

Change the Weather History Date:

Saturday, December 28, 2013

  Actual Average Record
Temperature  
Mean Temperature 23 °F 13 °F  
Max Temperature 36 °F 22 °F 41 °F (1999)
Min Temperature 10 °F 4 °F -26 °F (1917)
Degree Days  
Heating Degree Days 42 52  
Month to date heating degree days 1590 1364  
Since 1 July heating degree days 3463 3289  
Cooling Degree Days 0 0  
Month to date cooling degree days 0 0  
Year to date cooling degree days 578 465  
Moisture  
Dew Point 23 °F    
Average Humidity 88    
Maximum Humidity 100    
Minimum Humidity 75    
Precipitation  
Precipitation 0.00 in 0.02 in 0.59 in (1959)
Month to date precipitation 1.71 0.74  
Year to date precipitation 28.78 27.65  
Snow  
Snow 0.00 in 0.30 in 4.80 in (1982)
Month to date snowfall 19.9 8.4  
Since 1 July snowfall 23.5 17.6  
Snow Depth 9.00 in    
Sea Level Pressure  
Sea Level Pressure 29.86 in    
Wind  
Wind Speed 10 mph (NNE)    
Max Wind Speed 30 mph    
Max Gust Speed 38 mph    
Visibility 4 miles    
Events Fog , Rain , Snow    
T = Trace of Precipitation, MM = Missing Value Source: NWS Daily Summary

Daily Weather History Graph

Daily Weather History Graph

Search for Another Location

Airport or City:

Trip Planner

Search our weather history database for the weather conditions in past years. The results will help you decide how hot, cold, wet, or windy it might be!

Date:

Astronomy

Dec. 28, 2013 Rise Set
Actual Time 7:56 AM CST 4:40 PM CST
Civil Twilight 7:21 AM CST 5:14 PM CST
Nautical Twilight 6:44 AM CST 5:51 PM CST
Astronomical Twilight 6:08 AM CST 6:27 PM CST
Moon 3:26 AM CST (12/28) 1:37 PM CST (12/28)
Length of Visible Light 9h 52m
Length of Day
8h 43m
Waning Crescent, 19% of the Moon is Illuminated
Dec 28
Waning Crescent
Jan 1
New
Jan 7
First Quarter
Jan 15
Full
Jan 23
Last Quarter

Hourly Weather History & Observations

Time (CST) Temp. Windchill Dew Point Humidity Pressure Visibility Wind Dir Wind Speed Gust Speed Precip Events Conditions
12:03 AM 19.4 °F 14.3 °F 15.8 °F 86% 29.95 in 0.2 mi West 3.5 mph - N/A Fog Light Freezing Fog
12:29 AM 23.0 °F - 19.4 °F 86% 29.94 in 0.5 mi Calm Calm - N/A Fog Light Freezing Fog
12:40 AM 24.8 °F 20.5 °F 21.2 °F 86% 29.93 in 1.8 mi WSW 3.5 mph - N/A   Overcast
12:48 AM 24.8 °F - 21.2 °F 86% 29.92 in 2.5 mi Calm Calm - N/A   Overcast
12:53 AM 25.0 °F - 21.9 °F 88% 29.99 in 2.5 mi Calm Calm - N/A   Overcast
1:05 AM 26.6 °F 22.6 °F 23.0 °F 86% 29.93 in 3.0 mi SW 3.5 mph - N/A   Overcast
1:31 AM 28.4 °F - 24.8 °F 86% 29.92 in 3.0 mi Calm Calm - N/A   Overcast
1:53 AM 28.0 °F - 25.0 °F 88% 29.98 in 3.0 mi Calm Calm - N/A   Overcast
2:06 AM 28.4 °F - 24.8 °F 86% 29.91 in 1.8 mi Calm Calm - N/A   Overcast
2:18 AM 28.4 °F - 24.8 °F 86% 29.91 in 0.5 mi Calm Calm - N/A Fog Light Freezing Fog
2:28 AM 28.4 °F - 26.6 °F 93% 29.91 in 0.2 mi Calm Calm - N/A Fog Light Freezing Fog
2:53 AM 28.9 °F - 27.0 °F 92% 29.96 in 0.2 mi Calm Calm - N/A Fog Light Freezing Fog
3:53 AM 28.9 °F 23.9 °F 28.0 °F 96% 29.94 in 0.2 mi SSE 4.6 mph - N/A Fog Light Freezing Fog
4:53 AM 30.0 °F 22.4 °F 28.0 °F 92% 29.89 in 0.2 mi SSE 8.1 mph - N/A Fog Light Freezing Fog
5:53 AM 28.9 °F 20.4 °F 28.0 °F 96% 29.88 in 0.2 mi South 9.2 mph - N/A Fog Light Freezing Fog
6:30 AM 28.4 °F 21.2 °F 26.6 °F 93% 29.81 in 0.5 mi SSE 6.9 mph - N/A Fog Light Freezing Fog
6:53 AM 27.0 °F 18.7 °F 26.1 °F 96% 29.87 in 0.2 mi SE 8.1 mph - N/A Fog Light Freezing Fog
7:33 AM 26.6 °F 18.2 °F 24.8 °F 93% 29.79 in 0.5 mi SSE 8.1 mph - N/A Fog Light Freezing Fog
7:42 AM 26.6 °F 18.2 °F 24.8 °F 93% 29.79 in 0.2 mi SSE 8.1 mph - N/A Fog Light Freezing Fog
7:53 AM 25.0 °F 16.3 °F 24.1 °F 96% 29.85 in 0.2 mi SSE 8.1 mph - N/A Fog Light Freezing Fog
8:53 AM 25.0 °F 19.3 °F 24.1 °F 96% 29.83 in 0.5 mi SE 4.6 mph - N/A Fog Light Freezing Fog
9:07 AM 24.8 °F 19.1 °F 24.8 °F 100% 29.76 in 1.2 mi ESE 4.6 mph - N/A   Overcast
9:53 AM 27.0 °F 19.5 °F 25.0 °F 92% 29.82 in 1.0 mi SSE 6.9 mph - N/A   Mist
10:00 AM 26.6 °F 17.5 °F 24.8 °F 93% 29.74 in 5.0 mi SSE 9.2 mph - N/A   Clear
10:53 AM 28.9 °F 21.9 °F 27.0 °F 92% 29.80 in 9.0 mi SE 6.9 mph - N/A   Clear
11:53 AM 30.0 °F 23.2 °F 28.0 °F 92% 29.75 in 10.0 mi SE 6.9 mph - N/A   Clear
12:53 PM 36.0 °F - 28.0 °F 73% 29.73 in 10.0 mi Calm Calm - N/A   Clear
1:53 PM 32.0 °F 24.8 °F 27.0 °F 82% 29.72 in 6.0 mi NNE 8.1 mph - N/A   Haze
2:17 PM 28.4 °F 20.4 °F 26.6 °F 93% 29.66 in 3.0 mi NE 8.1 mph - N/A   Scattered Clouds
2:53 PM 30.0 °F 23.2 °F 26.1 °F 85% 29.75 in 5.0 mi North 6.9 mph - N/A   Partly Cloudy
3:11 PM 28.4 °F 19.7 °F 26.6 °F 93% 29.68 in 3.0 mi North 9.2 mph - N/A   Mostly Cloudy
3:19 PM 28.4 °F 19.7 °F 26.6 °F 93% 29.69 in 2.5 mi North 9.2 mph - N/A   Mostly Cloudy
3:38 PM 28.4 °F 19.7 °F 26.6 °F 93% 29.70 in 3.0 mi North 9.2 mph - N/A   Overcast
3:50 PM 30.2 °F 22.6 °F 26.6 °F 86% 29.70 in 4.0 mi North 8.1 mph - N/A   Overcast
3:53 PM 30.0 °F 24.1 °F 27.0 °F 88% 29.77 in 4.0 mi North 5.8 mph - N/A   Overcast
4:53 PM 30.0 °F 22.4 °F 27.0 °F 88% 29.80 in 7.0 mi North 8.1 mph - N/A   Overcast
5:53 PM 30.0 °F 20.0 °F 28.0 °F 92% 29.85 in 6.0 mi North 12.7 mph - N/A   Overcast
6:53 PM 30.9 °F 19.4 °F 28.9 °F 92% 29.88 in 4.0 mi North 17.3 mph - 0.00 in   Overcast
7:15 PM 30.2 °F 19.8 °F 28.4 °F 93% 29.83 in 9.0 mi North 13.8 mph 21.9 mph N/A   Overcast
7:53 PM 24.1 °F 8.0 °F 21.9 °F 91% 29.95 in 5.0 mi North 25.3 mph 35.7 mph 0.00 in Rain Light Freezing Rain
8:02 PM 24.8 °F 10.0 °F 21.2 °F 86% 29.88 in 5.0 mi North 21.9 mph 36.8 mph 0.00 in Rain Light Freezing Rain
8:25 PM 21.2 °F 5.2 °F 19.4 °F 93% 29.91 in 7.0 mi NNW 21.9 mph 32.2 mph 0.00 in   Overcast
8:53 PM 19.0 °F 1.6 °F 16.0 °F 88% 30.00 in 8.0 mi North 24.2 mph 33.4 mph 0.00 in   Overcast
9:53 PM 15.1 °F -2.9 °F 10.9 °F 84% 30.06 in 10.0 mi North 21.9 mph 32.2 mph N/A   Overcast
10:53 PM 12.0 °F -5.6 °F 8.1 °F 84% 30.10 in 7.0 mi North 18.4 mph 27.6 mph 0.00 in Snow Light Snow
11:43 PM 10.4 °F -8.2 °F 3.2 °F 73% 30.06 in 10.0 mi North 19.6 mph 29.9 mph 0.00 in   Overcast
11:53 PM 10.9 °F -7.0 °F 3.9 °F 73% 30.14 in 10.0 mi NNW 18.4 mph 29.9 mph 0.00 in   Overcast